Location: Be?i?
(36.9044°N, 30.1006°E)
Time: 10:37:00
(UTC+00:00)

ERS-1 Rocket - Pass Details

Date: 05 August 2024
Orbit: 750 x 753 km, 98.3° (Epoch: 12 September)

Event Time Altitude Azimuth Distance (km) Brightness Sun altitude
Exits shadow 18:34:45 29° 114° (ESE) 1,364 3.7 -17.0°
Maximum altitude 18:36:34 39° 71° (ENE) 1,120 3.6 -17.3°
Drops below altitude 10° 18:41:12 10° 4° (N) 2,277 5.9 -18.0°
Sets 18:43:37 0° 357° (N) 3,206 6.9 -18.4°
